| time (UTC) | temp F | wind direction | speed knots | gust knots | rain 1hr in | rain 24hr in | rain mn in | humidity % | barometer mb |
| 20260503021632 | 56 | 178 | 0.0 | 0.0 | 0.00 | 0.35 | 0.01 | 97 | 1008.8 |
| 20260503021130 | 56 | 178 | 0.0 | 0.0 | 0.00 | 0.35 | 0.01 | 97 | 1008.8 |
| 20260503020630 | 56 | 178 | 0.0 | 0.0 | 0.00 | 0.35 | 0.01 | 97 | 1008.8 |
| 20260503020021 | 56 | 178 | 0.0 | 0.0 | 0.00 | 0.35 | 0.01 | 97 | 1008.9 |
| 20260503015031 | 56 | 178 | 0.0 | 0.0 | 0.00 | 0.35 | 0.01 | 97 | 1008.9 |
| 20260503014530 | 56 | 178 | 0.0 | 0.0 | 0.00 | 0.35 | 0.01 | 97 | 1009.1 |
| 20260503014031 | 56 | 178 | 0.0 | 0.0 | 0.00 | 0.35 | 0.01 | 97 | 1009.1 |
| 20260503013753 | 56 | 178 | 0.0 | 0.0 | 0.00 | 0.35 | 0.01 | 97 | 1009.1 |
| 20260503013031 | 56 | 178 | 0.0 | 0.0 | 0.00 | 0.35 | 0.01 | 98 | 1009.2 |
| 20260503012532 | 56 | 178 | 0.0 | 0.9 | 0.00 | 0.35 | 0.01 | 98 | 1009.2 |
| 20260503012032 | 56 | 178 | 0.0 | 0.9 | 0.00 | 0.35 | 0.01 | 98 | 1009.3 |
| 20260503011532 | 56 | 178 | 0.0 | 0.0 | 0.00 | 0.35 | 0.01 | 97 | 1009.3 |
| 20260503011030 | 56 | 178 | 0.0 | 0.0 | 0.00 | 0.35 | 0.01 | 97 | 1009.3 |
| 20260503010537 | 56 | 178 | 0.0 | 0.0 | 0.00 | 0.35 | 0.01 | 97 | 1009.4 |
| 20260503010030 | 56 | 178 | 0.0 | 0.0 | 0.00 | 0.35 | 0.01 | 97 | 1009.4 |
| 20260503005528 | 56 | 178 | 0.0 | 0.0 | 0.00 | 0.35 | 0.01 | 97 | 1009.4 |
| 20260503005027 | 56 | 178 | 0.0 | 0.0 | 0.00 | 0.35 | 0.01 | 97 | 1009.5 |
| 20260503004524 | 56 | 178 | 0.0 | 0.0 | 0.00 | 0.35 | 0.01 | 97 | 1009.5 |
| 20260503004023 | 56 | 178 | 0.0 | 0.0 | 0.00 | 0.35 | 0.01 | 97 | 1009.5 |
| 20260503003521 | 56 | 178 | 0.0 | 0.0 | 0.00 | 0.35 | 0.01 | 97 | 1009.6 |
| 20260503003003 | 56 | 178 | 0.0 | 0.0 | 0.00 | 0.35 | 0.01 | 97 | 1009.6 |
| 20260503002503 | 56 | 178 | 0.0 | 0.0 | 0.00 | 0.35 | 0.01 | 97 | 1009.6 |
| 20260503001932 | 56 | 178 | 0.0 | 0.0 | 0.00 | 0.35 | 0.01 | 97 | 1009.7 |
| 20260503001423 | 56 | 178 | 0.0 | 0.0 | 0.00 | 0.35 | 0.01 | 97 | 1009.7 |
| 20260503001123 | 57 | 178 | 0.0 | 0.0 | 0.00 | 0.35 | 0.01 | 97 | 1009.8 |
| 20260503000401 | 57 | 178 | 0.0 | 0.0 | 0.00 | 0.35 | 0.01 | 97 | 1009.8 |
| 20260502235833 | 57 | 178 | 0.0 | 0.9 | 0.00 | 0.35 | 0.01 | 97 | 1009.9 |
| 20260502235555 | 57 | 178 | 0.0 | 0.9 | 0.00 | 0.35 | 0.01 | 97 | 1010.0 |
| 20260502234828 | 57 | 178 | 0.0 | 0.9 | 0.00 | 0.35 | 0.01 | 97 | 1010.0 |
| 20260502234327 | 57 | 178 | 0.0 | 0.9 | 0.00 | 0.35 | 0.01 | 97 | 1010.1 |
| 20260502233824 | 58 | 178 | 0.0 | 1.7 | 0.00 | 0.35 | 0.01 | 97 | 1010.2 |
| 20260502233319 | 57 | 179 | 0.0 | 1.7 | 0.00 | 0.35 | 0.01 | 97 | 1010.2 |
| 20260502232818 | 58 | 179 | 0.0 | 1.7 | 0.00 | 0.35 | 0.01 | 97 | 1010.2 |
| 20260502232305 | 58 | 188 | 0.0 | 1.7 | 0.00 | 0.35 | 0.01 | 97 | 1010.2 |
| 20260502231802 | 58 | 80 | 0.0 | 0.0 | 0.00 | 0.35 | 0.01 | 97 | 1010.3 |
| 20260502231302 | 58 | 80 | 0.0 | 0.0 | 0.01 | 0.35 | 0.01 | 96 | 1010.4 |
| 20260502230730 | 58 | 80 | 0.0 | 0.9 | 0.01 | 0.35 | 0.01 | 96 | 1010.4 |
| 20260502230231 | 58 | 80 | 0.0 | 1.7 | 0.01 | 0.35 | 0.01 | 97 | 1010.5 |
| 20260502225713 | 58 | 80 | 0.9 | 2.6 | 0.01 | 0.35 | 0.01 | 97 | 1010.5 |
| 20260502225205 | 58 | 18 | 0.9 | 2.6 | 0.01 | 0.35 | 0.01 | 97 | 1010.7 |
| 20260502224641 | 58 | 77 | 0.9 | 4.3 | 0.01 | 0.35 | 0.01 | 97 | 1010.5 |
| 20260502224353 | 58 | 354 | 0.9 | 4.3 | 0.01 | 0.35 | 0.01 | 97 | 1010.8 |
| 20260502224133 | 58 | 354 | 0.9 | 4.3 | 0.01 | 0.35 | 0.01 | 97 | 1010.8 |
| 20260502223631 | 58 | 354 | 0.9 | 4.3 | 0.01 | 0.35 | 0.01 | 97 | 1010.7 |
| 20260502223103 | 58 | 13 | 0.9 | 4.3 | 0.01 | 0.35 | 0.01 | 97 | 1010.9 |
| 20260502222603 | 58 | 253 | 0.9 | 3.5 | 0.01 | 0.35 | 0.01 | 97 | 1010.5 |
| 20260502222031 | 58 | 87 | 0.9 | 3.5 | 0.01 | 0.35 | 0.01 | 97 | 1010.6 |
| 20260502221530 | 57 | 355 | 0.0 | 2.6 | 0.01 | 0.35 | 0.01 | 97 | 1010.8 |
| 20260502221032 | 57 | 139 | 0.0 | 0.0 | 0.00 | 0.34 | 0.00 | 97 | 1010.4 |
| 20260502220532 | 58 | 139 | 0.0 | 0.0 | 0.00 | 0.34 | 0.00 | 97 | 1010.4 |
| 20260502220031 | 58 | 139 | 0.0 | 0.0 | 0.00 | 0.34 | 0.00 | 97 | 1010.4 |
| 20260502215530 | 58 | 139 | 0.0 | 0.0 | 0.00 | 0.34 | 0.34 | 97 | 1010.4 |
| 20260502215032 | 58 | 139 | 0.0 | 0.0 | 0.00 | 0.34 | 0.34 | 97 | 1010.4 |
| 20260502214530 | 58 | 139 | 0.0 | 0.0 | 0.00 | 0.34 | 0.34 | 97 | 1010.5 |
| 20260502214030 | 58 | 139 | 0.0 | 0.0 | 0.00 | 0.34 | 0.34 | 97 | 1010.5 |
| 20260502213533 | 58 | 139 | 0.0 | 0.0 | 0.00 | 0.34 | 0.34 | 97 | 1010.5 |
| 20260502213254 | 58 | 139 | 0.0 | 0.0 | 0.00 | 0.34 | 0.34 | 97 | 1010.6 |
| 20260502212525 | 58 | 139 | 0.0 | 0.0 | 0.00 | 0.34 | 0.34 | 97 | 1010.6 |
| 20260502212508 | 57 | 139 | 0.0 | 0.0 | 0.00 | 0.34 | 0.34 | 96 | 1010.6 |
| 20260502211503 | 57 | 139 | 0.0 | 0.0 | 0.00 | 0.34 | 0.34 | 96 | 1010.6 |
| 20260502210932 | 57 | 139 | 0.0 | 0.0 | 0.00 | 0.34 | 0.34 | 96 | 1010.6 |
| 20260502210433 | 57 | 139 | 0.0 | 0.0 | 0.00 | 0.34 | 0.34 | 96 | 1010.6 |
| 20260502205930 | 57 | 139 | 0.0 | 0.0 | 0.00 | 0.34 | 0.34 | 96 | 1010.6 |
| 20260502205659 | 57 | 139 | 0.0 | 0.0 | 0.00 | 0.34 | 0.34 | 96 | 1010.6 |
| 20260502204934 | 58 | 139 | 0.0 | 0.0 | 0.00 | 0.34 | 0.34 | 96 | 1010.6 |
| 20260502204432 | 58 | 139 | 0.0 | 0.0 | 0.00 | 0.34 | 0.34 | 96 | 1010.6 |
| 20260502203932 | 58 | 139 | 0.0 | 0.0 | 0.00 | 0.34 | 0.34 | 96 | 1010.6 |
| 20260502203425 | 58 | 139 | 0.0 | 0.0 | 0.00 | 0.34 | 0.34 | 96 | 1010.7 |
| 20260502202921 | 58 | 139 | 0.0 | 0.0 | 0.00 | 0.34 | 0.34 | 96 | 1010.7 |
| 20260502202416 | 58 | 139 | 0.0 | 0.0 | 0.00 | 0.34 | 0.34 | 96 | 1010.6 |
| 20260502201904 | 58 | 139 | 0.0 | 0.0 | 0.00 | 0.34 | 0.34 | 96 | 1010.7 |
| 20260502201404 | 58 | 139 | 0.0 | 0.0 | 0.00 | 0.34 | 0.34 | 96 | 1010.8 |
| 20260502200832 | 58 | 139 | 0.0 | 0.0 | 0.00 | 0.34 | 0.34 | 95 | 1010.8 |
| 20260502200329 | 58 | 139 | 0.0 | 0.0 | 0.01 | 0.34 | 0.34 | 95 | 1010.9 |
| 20260502195831 | 58 | 139 | 0.0 | 0.0 | 0.02 | 0.34 | 0.34 | 95 | 1010.9 |
| 20260502195331 | 58 | 139 | 0.0 | 0.0 | 0.02 | 0.34 | 0.34 | 95 | 1010.8 |
| 20260502194831 | 58 | 139 | 0.0 | 0.0 | 0.02 | 0.34 | 0.34 | 95 | 1010.9 |
| 20260502194332 | 58 | 139 | 0.0 | 0.9 | 0.02 | 0.34 | 0.34 | 95 | 1010.8 |
| 20260502194025 | 58 | 139 | 0.0 | 0.9 | 0.02 | 0.34 | 0.34 | 95 | 1010.9 |
| 20260502193303 | 58 | 139 | 0.0 | 1.7 | 0.02 | 0.34 | 0.34 | 95 | 1011.0 |
| 20260502192733 | 58 | 131 | 0.0 | 1.7 | 0.02 | 0.34 | 0.34 | 95 | 1010.9 |
| 20260502192229 | 58 | 193 | 0.9 | 2.6 | 0.02 | 0.34 | 0.34 | 94 | 1011.0 |
| 20260502192218 | 58 | 162 | 0.9 | 2.6 | 0.02 | 0.34 | 0.34 | 95 | 1011.0 |
| 20260502191449 | 58 | 131 | 0.0 | 1.7 | 0.03 | 0.34 | 0.34 | 95 | 1011.0 |
| 20260502190703 | 58 | 192 | 0.0 | 1.7 | 0.04 | 0.34 | 0.34 | 95 | 1011.0 |
| 20260502190203 | 58 | 192 | 0.0 | 0.9 | 0.04 | 0.33 | 0.33 | 94 | 1011.2 |
| 20260502185639 | 58 | 193 | 0.0 | 1.7 | 0.03 | 0.32 | 0.32 | 94 | 1011.1 |
| 20260502185354 | 58 | 227 | 0.0 | 2.6 | 0.04 | 0.32 | 0.32 | 94 | 1011.4 |
| 20260502184632 | 58 | 177 | 0.0 | 2.6 | 0.04 | 0.32 | 0.32 | 94 | 1011.6 |
| 20260502184104 | 58 | 164 | 0.0 | 0.9 | 0.04 | 0.31 | 0.31 | 94 | 1011.8 |
| 20260502183534 | 58 | 266 | 0.0 | 2.6 | 0.05 | 0.31 | 0.31 | 94 | 1011.6 |
| 20260502183032 | 58 | 209 | 0.0 | 1.7 | 0.13 | 0.31 | 0.31 | 94 | 1011.4 |
| 20260502182530 | 58 | 203 | 0.0 | 1.7 | 0.20 | 0.31 | 0.31 | 94 | 1011.6 |
| 20260502182034 | 58 | 268 | 0.0 | 0.9 | 0.20 | 0.31 | 0.31 | 93 | 1011.7 |
| 20260502181751 | 58 | 268 | 0.0 | 3.5 | 0.20 | 0.31 | 0.31 | 93 | 1011.7 |
| 20260502181243 | 58 | 268 | 0.9 | 0.9 | 0.20 | 0.31 | 0.31 | 93 | 1011.7 |
| 20260502180728 | 58 | 288 | 0.9 | 3.5 | 0.19 | 0.30 | 0.30 | 93 | 1011.6 |
| 20260502180449 | 58 | 314 | 0.0 | 1.7 | 0.18 | 0.29 | 0.29 | 92 | 1011.4 |
| 20260502170335 | 67 | 23 | 0.0 | 0.0 | 0.09 | 0.11 | 0.11 | 92 | 1010.8 |
| 20260502163803 | 68 | 23 | 0.0 | 1.7 | 0.11 | 0.11 | 0.11 | 87 | 1011.0 |
| 20260502163231 | 68 | 136 | 0.0 | 1.7 | 0.11 | 0.11 | 0.11 | 86 | 1011.2 |
| 20260502162959 | 69 | 206 | 0.0 | 1.7 | 0.11 | 0.11 | 0.11 | 83 | 1011.4 |
| 20260502162232 | 70 | 115 | 0.0 | 1.7 | 0.10 | 0.10 | 0.10 | 82 | 1011.4 |
| 20260502161732 | 72 | 200 | 0.0 | 1.7 | 0.06 | 0.06 | 0.06 | 81 | 1011.5 |
| 20260502161231 | 73 | 61 | 0.0 | 1.7 | 0.06 | 0.06 | 0.06 | 74 | 1011.3 |
| 20260502160730 | 74 | 102 | 0.9 | 7.0 | 0.06 | 0.06 | 0.06 | 73 | 1011.5 |
| 20260502160237 | 75 | 250 | 0.9 | 7.0 | 0.02 | 0.02 | 0.01 | 68 | 1011.6 |
| 20260502152140 | 76 | 271 | 1.7 | 3.5 | 0.00 | 0.00 | 0.00 | 59 | 1011.8 |
| 20260502151903 | 77 | 275 | 0.9 | 3.5 | 0.00 | 0.00 | 0.00 | 54 | 1011.9 |
| 20260502151131 | 78 | 269 | 0.9 | 2.6 | 0.00 | 0.00 | 0.00 | 54 | 1012.0 |
| 20260502150630 | 79 | 93 | 0.9 | 2.6 | 0.00 | 0.00 | 0.00 | 51 | 1012.0 |
| 20260502150546 | 79 | 148 | 0.9 | 3.5 | 0.00 | 0.00 | 0.00 | 53 | 1012.2 |
| 20260502130330 | 76 | 129 | 1.7 | 6.1 | 0.00 | 0.00 | 0.00 | 57 | 1013.6 |
| 20260502123804 | 75 | 28 | 2.6 | 7.0 | 0.00 | 0.00 | 0.00 | 58 | 1013.8 |
| 20260502123232 | 76 | 281 | 2.6 | 7.0 | 0.00 | 0.00 | 0.00 | 57 | 1013.8 |
| 20260502122724 | 76 | 270 | 1.7 | 7.0 | 0.00 | 0.00 | 0.00 | 56 | 1014.0 |
| 20260502122204 | 76 | 230 | 1.7 | 5.2 | 0.00 | 0.00 | 0.00 | 57 | 1014.1 |
| 20260502122127 | 76 | 229 | 1.7 | 4.3 | 0.00 | 0.00 | 0.00 | 58 | 1014.2 |
| 20260502121131 | 76 | 139 | 1.7 | 6.1 | 0.00 | 0.00 | 0.00 | 58 | 1014.4 |
| 20260502120631 | 76 | 274 | 1.7 | 6.1 | 0.00 | 0.00 | 0.00 | 56 | 1014.4 |
| 20260502115530 | 76 | 181 | 1.7 | 3.5 | 0.00 | 0.00 | 0.00 | 56 | 1014.5 |
| 20260502115031 | 76 | 302 | 1.7 | 7.0 | 0.00 | 0.00 | 0.00 | 56 | 1014.6 |
| 20260502114532 | 76 | 237 | 1.7 | 7.0 | 0.00 | 0.00 | 0.00 | 55 | 1014.6 |
| 20260502114032 | 76 | 256 | 1.7 | 7.0 | 0.00 | 0.00 | 0.00 | 56 | 1014.7 |
| 20260502113531 | 76 | 131 | 1.7 | 7.0 | 0.00 | 0.00 | 0.00 | 55 | 1014.7 |
| 20260502113030 | 75 | 218 | 1.7 | 6.1 | 0.00 | 0.00 | 0.00 | 56 | 1014.7 |
| 20260502112536 | 76 | 281 | 1.7 | 6.1 | 0.00 | 0.00 | 0.00 | 57 | 1014.7 |
| 20260502112034 | 75 | 166 | 1.7 | 6.1 | 0.00 | 0.00 | 0.00 | 56 | 1014.8 |
| 20260502111528 | 75 | 326 | 2.6 | 7.0 | 0.00 | 0.00 | 0.00 | 57 | 1015.0 |
| 20260502111511 | 75 | 300 | 1.7 | 7.0 | 0.00 | 0.00 | 0.00 | 56 | 1015.0 |
| 20260502110522 | 75 | 235 | 2.6 | 3.5 | 0.00 | 0.00 | 0.00 | 57 | 1015.1 |
| 20260502105938 | 74 | 64 | 1.7 | 7.8 | 0.00 | 0.00 | 0.00 | 56 | 1015.0 |
| 20260502105659 | 74 | 139 | 1.7 | 3.5 | 0.00 | 0.00 | 0.00 | 57 | 1015.1 |
| 20260502104934 | 74 | 267 | 2.6 | 8.7 | 0.00 | 0.00 | 0.00 | 58 | 1015.1 |
| 20260502104432 | 74 | 316 | 2.6 | 8.7 | 0.00 | 0.00 | 0.00 | 57 | 1015.3 |
| 20260502103932 | 74 | 325 | 2.6 | 7.0 | 0.00 | 0.00 | 0.00 | 57 | 1015.4 |
| 20260502103430 | 73 | 282 | 2.6 | 7.0 | 0.00 | 0.00 | 0.00 | 58 | 1015.3 |
| 20260502102930 | 73 | 209 | 2.6 | 5.2 | 0.00 | 0.00 | 0.00 | 57 | 1015.4 |
| 20260502102402 | 73 | 229 | 1.7 | 5.2 | 0.00 | 0.00 | 0.00 | 58 | 1015.4 |
| 20260502102121 | 73 | 264 | 1.7 | 5.2 | 0.00 | 0.00 | 0.00 | 58 | 1015.5 |
| 20260502101330 | 73 | 294 | 1.7 | 5.2 | 0.00 | 0.00 | 0.00 | 58 | 1015.6 |
| 20260502100832 | 72 | 182 | 1.7 | 5.2 | 0.00 | 0.00 | 0.00 | 57 | 1015.6 |
| 20260502100332 | 72 | 63 | 1.7 | 5.2 | 0.00 | 0.00 | 0.00 | 57 | 1015.7 |
| 20260502091227 | 70 | 305 | 2.6 | 6.1 | 0.00 | 0.00 | 0.00 | 60 | 1016.0 |
| 20260502090706 | 70 | 292 | 1.7 | 7.0 | 0.00 | 0.00 | 0.00 | 59 | 1016.0 |
| 20260502090202 | 69 | 282 | 2.6 | 7.0 | 0.00 | 0.00 | 0.00 | 59 | 1016.0 |
| 20260502071432 | 63 | 278 | 0.9 | 2.6 | 0.00 | 0.00 | 0.00 | 68 | 1016.3 |
| 20260502070929 | 62 | 275 | 0.0 | 2.6 | 0.00 | 0.00 | 0.00 | 70 | 1016.3 |
| 20260502070404 | 62 | 212 | 0.0 | 2.6 | 0.00 | 0.00 | 0.00 | 71 | 1016.3 |
| 20260502065904 | 61 | 283 | 0.0 | 2.6 | 0.00 | 0.00 | 0.00 | 72 | 1016.4 |
| 20260502065844 | 60 | 138 | 0.0 | 2.6 | 0.00 | 0.00 | 0.00 | 75 | 1016.3 |
| 20260502064832 | 59 | 264 | 0.0 | 2.6 | 0.00 | 0.00 | 0.00 | 76 | 1016.4 |
| 20260502064333 | 58 | 87 | 0.0 | 0.9 | 0.00 | 0.00 | 0.00 | 80 | 1016.4 |
| 20260502063830 | 57 | 87 | 0.0 | 0.0 | 0.00 | 0.00 | 0.00 | 82 | 1016.4 |
| 20260502063310 | 56 | 87 | 0.0 | 0.0 | 0.00 | 0.00 | 0.00 | 85 | 1016.3 |
| 20260502062804 | 54 | 88 | 0.0 | 0.0 | 0.00 | 0.00 | 0.00 | 87 | 1016.3 |
| 20260502062306 | 53 | 87 | 0.0 | 0.0 | 0.00 | 0.00 | 0.00 | 89 | 1016.3 |
| 20260502061732 | 52 | 87 | 0.0 | 0.0 | 0.00 | 0.00 | 0.00 | 89 | 1016.2 |
| 20260502061231 | 52 | 87 | 0.0 | 0.0 | 0.00 | 0.00 | 0.00 | 90 | 1016.3 |
| 20260502060730 | 51 | 87 | 0.0 | 0.0 | 0.00 | 0.00 | 0.00 | 90 | 1016.3 |
| 20260502060231 | 51 | 87 | 0.0 | 0.0 | 0.00 | 0.00 | 0.00 | 91 | 1016.3 |
| 20260502055711 | 50 | 87 | 0.0 | 0.0 | 0.00 | 0.00 | 0.00 | 91 | 1016.2 |
| 20260502055204 | 50 | 87 | 0.0 | 0.0 | 0.00 | 0.00 | 0.00 | 91 | 1016.3 |
| 20260502054703 | 49 | 87 | 0.0 | 0.0 | 0.00 | 0.00 | 0.00 | 91 | 1016.2 |
| 20260502054436 | 49 | 87 | 0.0 | 0.0 | 0.00 | 0.00 | 0.00 | 92 | 1016.3 |
| 20260502053647 | 49 | 87 | 0.0 | 0.0 | 0.00 | 0.00 | 0.00 | 92 | 1016.2 |
| 20260502053358 | 48 | 87 | 0.0 | 0.0 | 0.00 | 0.00 | 0.00 | 93 | 1016.3 |
| 20260502052637 | 48 | 87 | 0.0 | 0.0 | 0.00 | 0.00 | 0.00 | 93 | 1016.3 |
| 20260502052136 | 48 | 87 | 0.0 | 0.0 | 0.00 | 0.00 | 0.00 | 93 | 1016.3 |
| 20260502051608 | 47 | 87 | 0.0 | 0.0 | 0.00 | 0.00 | 0.00 | 93 | 1016.3 |
| 20260502051107 | 47 | 87 | 0.0 | 0.0 | 0.00 | 0.00 | 0.00 | 93 | 1016.2 |
| 20260502050804 | 46 | 87 | 0.0 | 0.0 | 0.00 | 0.00 | 0.00 | 93 | 1016.2 |
| 20260502050031 | 46 | 87 | 0.0 | 0.0 | 0.00 | 0.00 | 0.00 | 93 | 1016.1 |
| 20260502045530 | 46 | 87 | 0.0 | 0.9 | 0.00 | 0.00 | 0.00 | 93 | 1016.1 |
| 20260502045032 | 45 | 87 | 0.0 | 0.9 | 0.00 | 0.00 | 0.00 | 93 | 1016.1 |
| 20260502044754 | 45 | 87 | 0.0 | 0.0 | 0.00 | 0.00 | 0.00 | 93 | 1016.1 |
| 20260502044032 | 45 | 87 | 0.0 | 0.0 | 0.00 | 0.00 | 0.00 | 93 | 1016.1 |
| 20260502043750 | 44 | 87 | 0.0 | 0.0 | 0.00 | 0.00 | 0.00 | 93 | 1016.2 |
| 20260502043030 | 44 | 87 | 0.0 | 0.0 | 0.00 | 0.00 | 0.00 | 93 | 1016.2 |
| 20260502042531 | 44 | 87 | 0.0 | 1.7 | 0.00 | 0.00 | 0.00 | 92 | 1016.2 |
| 20260502042026 | 44 | 87 | 0.0 | 1.7 | 0.00 | 0.00 | 0.00 | 92 | 1016.2 |
| 20260502041504 | 44 | 87 | 0.0 | 0.0 | 0.00 | 0.00 | 0.00 | 92 | 1016.3 |
| 20260502041226 | 44 | 87 | 0.0 | 0.0 | 0.00 | 0.00 | 0.00 | 92 | 1016.4 |
| 20260502040504 | 44 | 87 | 0.0 | 0.0 | 0.00 | 0.00 | 0.00 | 93 | 1016.5 |
| 20260502035932 | 44 | 87 | 0.0 | 0.0 | 0.00 | 0.00 | 0.00 | 93 | 1016.5 |
| 20260502035425 | 44 | 87 | 0.0 | 0.9 | 0.00 | 0.00 | 0.00 | 93 | 1016.5 |
| 20260502035123 | 44 | 87 | 0.0 | 0.9 | 0.00 | 0.00 | 0.00 | 93 | 1016.5 |
| 20260502034844 | 44 | 87 | 0.0 | 1.7 | 0.00 | 0.00 | 0.00 | 93 | 1016.5 |
| 20260502033903 | 43 | 87 | 0.0 | 1.7 | 0.00 | 0.00 | 0.00 | 92 | 1016.6 |
| 20260502033403 | 43 | 87 | 0.0 | 0.0 | 0.00 | 0.00 | 0.00 | 92 | 1016.5 |
| 20260502032902 | 43 | 87 | 0.0 | 0.0 | 0.00 | 0.00 | 0.00 | 92 | 1016.4 |
| 20260502032402 | 43 | 87 | 0.0 | 0.0 | 0.00 | 0.00 | 0.00 | 92 | 1016.4 |
| 20260502031833 | 43 | 87 | 0.0 | 0.0 | 0.00 | 0.00 | 0.00 | 92 | 1016.4 |
| 20260502031331 | 43 | 87 | 0.0 | 0.0 | 0.00 | 0.00 | 0.00 | 92 | 1016.4 |
| 20260502030824 | 43 | 87 | 0.0 | 0.0 | 0.00 | 0.00 | 0.00 | 92 | 1016.5 |
| 20260502030303 | 44 | 87 | 0.0 | 0.0 | 0.00 | 0.00 | 0.00 | 92 | 1016.5 |
| 20260502025802 | 44 | 87 | 0.0 | 0.0 | 0.00 | 0.00 | 0.00 | 92 | 1016.5 |
| 20260502025232 | 44 | 87 | 0.0 | 0.0 | 0.00 | 0.00 | 0.00 | 92 | 1016.6 |
| 20260502024731 | 44 | 87 | 0.0 | 0.0 | 0.00 | 0.00 | 0.00 | 91 | 1016.6 |
| 20260502024231 | 44 | 87 | 0.0 | 0.0 | 0.00 | 0.00 | 0.00 | 92 | 1016.7 |
| 20260502023711 | 44 | 87 | 0.0 | 0.0 | 0.00 | 0.00 | 0.00 | 91 | 1016.7 |
| 20260502023428 | 44 | 87 | 0.0 | 0.0 | 0.00 | 0.00 | 0.00 | 91 | 1016.6 |
| 20260502022630 | 44 | 87 | 0.0 | 0.0 | 0.00 | 0.00 | 0.00 | 91 | 1016.7 |
| 20260502022130 | 44 | 87 | 0.0 | 0.0 | 0.00 | 0.00 | 0.00 | 91 | 1016.7 |